This is the latest recevied weather packets stored in our database for station/object KK7MLS-13. If no packets are shown the sender has not sent any weather packets the latest 10 day(s).
| Time | Temp. | Humidity | Pressure | Rain* | Wind** | Luminosity | Snow |
|---|---|---|---|---|---|---|---|
| 1777850878 | 36.67° C | 18% | 1008 hPa | 0 mm | - | 443 W/m² | - |
| 1777850576 | 36.67° C | 17% | 1008.1 hPa | 0 mm | - | 455 W/m² | - |
| 1777850274 | 36.11° C | 20% | 1008.2 hPa | 0 mm | - | 469 W/m² | - |
| 1777849970 | 36.67° C | 21% | 1008 hPa | 0 mm | - | 482 W/m² | - |
| 1777849666 | 36.11° C | 19% | 1008.1 hPa | 0 mm | - | 494 W/m² | - |
| 1777849364 | 35.56° C | 19% | 1008.3 hPa | 0 mm | - | 507 W/m² | - |
| 1777849061 | 35.56° C | 18% | 1008.2 hPa | 0 mm | - | 513 W/m² | - |
| 1777848761 | 36.11° C | 19% | 1008.2 hPa | 0 mm | - | 527 W/m² | - |
| 1777848458 | 36.11° C | 19% | 1008.3 hPa | 0 mm | - | 539 W/m² | - |
| 1777848156 | 35.56° C | 23% | 1008.5 hPa | 0 mm | - | 550 W/m² | - |
| 1777847854 | 35.56° C | 20% | 1008.7 hPa | 0 mm | - | 559 W/m² | - |
| 1777847551 | 36.11° C | 19% | 1008.8 hPa | 0 mm | - | 568 W/m² | - |
| 1777847247 | 36.11° C | 26% | 1008.6 hPa | 0 mm | - | 577 W/m² | - |
| 1777846945 | 36.11° C | 23% | 1008.8 hPa | 0 mm | - | 588 W/m² | - |
| 1777846643 | 36.11° C | 20% | 1008.8 hPa | 0 mm | - | 597 W/m² | - |
| 1777846341 | 36.11° C | 24% | 1009 hPa | 0 mm | - | 607 W/m² | - |
| 1777846037 | 35.56° C | 24% | 1009.1 hPa | 0 mm | - | 615 W/m² | - |
| 1777845734 | 35.56° C | 26% | 1009.2 hPa | 0 mm | - | 626 W/m² | - |
| 1777845430 | 35.56° C | 23% | 1009.2 hPa | 0 mm | - | 634 W/m² | - |
| 1777845128 | 35° C | 26% | 1009.3 hPa | 0 mm | - | 642 W/m² | - |
| 1777844826 | 35° C | 25% | 1009.3 hPa | 0 mm | - | 649 W/m² | - |
| 1777844522 | 35° C | 27% | 1009.3 hPa | 0 mm | - | 659 W/m² | - |
| 1777844221 | 35° C | 25% | 1009.5 hPa | 0 mm | - | 665 W/m² | - |
| 1777843917 | 34.44° C | 24% | 1009.7 hPa | 0 mm | - | 671 W/m² | - |
| 1777843614 | 34.44° C | 24% | 1009.5 hPa | 0 mm | - | 679 W/m² | - |
* Rain latest hour (hover to see other rain measurements)
** Current wind speed in m/s (hover to see current wind gust speed)